Lafayette, LA

10:24 AM CDT on March 26, 2017 (GMT -0500)
Lafayette Regional

Weather History for KLFT - May, 2012

Change the Weather History Date:

Thursday, May 24, 2012

  Actual Average Record
Temperature  
Mean Temperature 78 °F 78 °F  
Max Temperature 87 °F 88 °F 97 °F (1896)
Min Temperature 69 °F 69 °F 53 °F (1931)
Cooling Degree Days 13 13  
Month to date cooling degree days 285 261  
Year to date cooling degree days 727 515  
Growing Degree Days 28 (Base 50)    
Moisture  
Dew Point 68 °F    
Average Humidity 74    
Maximum Humidity 97    
Minimum Humidity 51    
Precipitation  
Precipitation 0.00 in 0.18 in 3.32 in (1968)
Month to date precipitation 1.72 3.57  
Year to date precipitation 24.05 21.41  
Sea Level Pressure  
Sea Level Pressure 29.84 in    
Wind  
Wind Speed 8 mph (South)    
Max Wind Speed 18 mph    
Max Gust Speed 26 mph    
Visibility 9 miles    
Events      
T = Trace of Precipitation, MM = Missing Value Source: NWS Daily Summary

Daily Weather History Graph

Daily Weather History Graph

Search for Another Location

Airport or City:

Trip Planner

Search our weather history database for the weather conditions in past years. The results will help you decide how hot, cold, wet, or windy it might be!

Date:

Astronomy

May. 24, 2012 Rise Set
Actual Time 6:09 AM CDT 8:00 PM CDT
Civil Twilight 5:42 AM CDT 8:27 PM CDT
Nautical Twilight 5:10 AM CDT 8:59 PM CDT
Astronomical Twilight 4:35 AM CDT 9:34 PM CDT
Moon 9:07 AM CDT (5/24) 11:05 PM CDT (5/24)
Length of Visible Light 14h 45m
Length of Day
13h 51m
Waxing Crescent, 12% of the Moon is Illuminated
May 24
Waxing Crescent
May 28
First Quarter
Jun 4
Full
Jun 11
Last Quarter
Jun 19
New

Hourly Weather History & Observations

Time (CDT) Temp. Heat Index Dew Point Humidity Pressure Visibility Wind Dir Wind Speed Gust Speed Precip Events Conditions
12:53 AM 73.0 °F - 69.1 °F 87% 29.81 in 8.0 mi SSE 3.5 mph - N/A   Clear
1:53 AM 72.0 °F - 69.1 °F 91% 29.79 in 7.0 mi Calm Calm - N/A   Clear
2:53 AM 70.0 °F - 68.0 °F 93% 29.78 in 5.0 mi Calm Calm - N/A   Clear
3:53 AM 71.1 °F - 69.1 °F 93% 29.79 in 6.0 mi Calm Calm - N/A   Clear
4:53 AM 71.1 °F - 69.1 °F 93% 29.79 in 6.0 mi Calm Calm - N/A   Scattered Clouds
5:53 AM 72.0 °F - 68.0 °F 87% 29.79 in 9.0 mi Calm Calm - N/A   Clear
6:53 AM 73.9 °F - 66.9 °F 79% 29.81 in 10.0 mi South 3.5 mph - N/A   Clear
7:53 AM 77.0 °F - 68.0 °F 74% 29.82 in 10.0 mi South 5.8 mph - N/A   Clear
8:53 AM 81.0 °F 83.3 °F 66.9 °F 62% 29.84 in 10.0 mi South 10.4 mph 23.0 mph N/A   Partly Cloudy
9:53 AM 82.9 °F 85.4 °F 66.9 °F 58% 29.86 in 10.0 mi South 16.1 mph 24.2 mph N/A   Mostly Cloudy
10:53 AM 82.9 °F 85.0 °F 66.0 °F 56% 29.86 in 10.0 mi South 15.0 mph 26.5 mph N/A   Scattered Clouds
11:53 AM 84.0 °F 86.3 °F 66.0 °F 55% 29.87 in 10.0 mi South 10.4 mph 19.6 mph N/A   Mostly Cloudy
12:53 PM 84.9 °F 86.6 °F 64.9 °F 51% 29.87 in 10.0 mi SSW 15.0 mph 21.9 mph N/A   Mostly Cloudy
1:53 PM 86.0 °F 88.2 °F 66.0 °F 51% 29.86 in 10.0 mi South 16.1 mph 23.0 mph N/A   Scattered Clouds
2:53 PM 84.9 °F 87.1 °F 66.0 °F 53% 29.85 in 10.0 mi South 11.5 mph 20.7 mph N/A   Scattered Clouds
3:53 PM 86.0 °F 88.8 °F 66.9 °F 53% 29.84 in 10.0 mi South 9.2 mph 19.6 mph N/A   Partly Cloudy
4:53 PM 84.9 °F 87.6 °F 66.9 °F 55% 29.83 in 10.0 mi SSW 13.8 mph 21.9 mph N/A   Partly Cloudy
5:53 PM 84.0 °F 86.3 °F 66.0 °F 55% 29.83 in 10.0 mi South 12.7 mph - N/A   Clear
6:53 PM 82.0 °F 84.1 °F 66.0 °F 58% 29.84 in 10.0 mi South 11.5 mph 20.7 mph N/A   Clear
7:53 PM 80.1 °F 82.7 °F 68.0 °F 67% 29.84 in 10.0 mi South 9.2 mph - N/A   Clear
8:53 PM 78.1 °F - 69.1 °F 74% 29.85 in 10.0 mi SSE 4.6 mph - N/A   Partly Cloudy
9:53 PM 75.9 °F - 69.1 °F 79% 29.87 in 10.0 mi SE 3.5 mph - N/A   Clear
10:53 PM 75.9 °F - 70.0 °F 82% 29.88 in 10.0 mi SSE 4.6 mph - N/A   Clear
11:53 PM 75.0 °F - 70.0 °F 84% 29.88 in 10.0 mi SSE 4.6 mph - N/A   Clear